Location: Asheville, NC
(35.6000°N, 82.5500°W)
Time: 20:32:27
(UTC-04:00)

HO-68 - Pass Details

Date: 11 March 2018
Orbit: 1192 x 1205 km, 100.1° (Epoch: 20 June)

Event Time Altitude Azimuth Distance (km) Brightness Sun altitude
Rises 06:44:57 0° 38° (NE) 4,114 ? -13.3°
Reaches altitude 10° 06:49:36 10° 66° (ENE) 3,145 ? -12.4°
Maximum altitude 06:52:33 13° 90° (E) 2,934 ? -11.8°
Drops below altitude 10° 06:55:29 10° 115° (ESE) 3,139 ? -11.2°
Sets 07:00:04 0° 142° (SE) 4,097 ? -10.3°
